Regional Weather Roundup
Issued by NWS

Home | Current Version | Previous Version | Text Only | Print | Product List | Glossary On
Versions: 1 2 3 4 5 6 7 8 9 10 11 12 13 14 15 16 17 18 19 20 21 22 23 24 25 26 27 28 29 30 31 32 33 34 35 36 37 38 39 40 41 42 43 44 45 46 47 48 49 50
000
ASUS43 KMKX 202300
RWRWI

WISCONSIN REGIONAL WEATHER ROUNDUP
NATIONAL WEATHER SERVICE MILWAUKEE/SULLIVAN WI
600 PM CDT SUN APR 20 2014

NOTE: "FAIR" INDICATES FEW OR NO CLOUDS BELOW 12,000 FEET WITH NO
SIGNIFICANT WEATHER AND/OR OBSTRUCTIONS TO VISIBILITY.

WIZ001-002-006>008-014>016-023>028-210000-
NORTHWEST WISCONSIN

CITY           SKY/WX    TMP DP  RH WIND       PRES   REMARKS
SUPERIOR ARPT  SUNNY     62  38  41 E3        29.99S
ASHLAND        SUNNY     53  39  59 N6        30.02R
HAYWARD        SUNNY     70  27  20 VRB5      29.98S
SIREN          SUNNY     70  29  21 NE3       29.97F
RICE LAKE      SUNNY     72  39  30 CALM      29.98S
LADYSMITH      SUNNY     69  50  51 S10       30.00S
EAU CLAIRE     NOT AVBL
MENOMONIE      CLEAR     70  51  49 S7        29.98S
NEW RICHMOND   SUNNY     72  40  31 S6        29.97S
OSCEOLA        SUNNY     74  39  28 N3        29.98S
$$

WIZ003>005-009-010-017-018-210000-
NORTH CENTRAL WISCONSIN

CITY           SKY/WX    TMP DP  RH WIND       PRES   REMARKS
WOODRUFF       SUNNY     67  43  41 S10       29.99S
RHINELANDER    CLOUDY    60  49  66 S8        30.01S
EAGLE RIVER    SUNNY     66  41  40 S6        29.99S
LAND O LAKES   SUNNY     68  35  29 W6        29.99S
PHILLIPS       SUNNY     69  44  40 SW5       29.97F
TOMAHAWK       CLOUDY    59  49  69 CALM      30.01S
MEDFORD        CLOUDY    56  52  86 S6        30.02F
MERRILL        CLOUDY    57  51  81 CALM      30.03F
$$

WIZ029-030-035-036-043>047-210000-
CENTRAL WISCONSIN

CITY           SKY/WX    TMP DP  RH WIND       PRES   REMARKS
WAUSAU         CLOUDY    58  51  78 S3        30.01F
MOSINEE        NOT AVBL
MARSHFIELD     CLOUDY    60  54  80 SW5       30.02S
STEVENS POINT  PTSUNNY   59  52  77 SW7       30.04S
WAUPACA        LGT RAIN  61  54  77 S6        30.04F
WAUTOMA        NOT AVBL
WISC RAPIDS    CLOUDY    59  52  77 SW3       30.04F
CAMP DOUGLAS   NOT AVBL
$$

WIZ011>013-019>022-031-037>040-048>050-210000-
NORTHEAST WISCONSIN

CITY           SKY/WX    TMP DP  RH WIND       PRES   REMARKS
ANTIGO         CLOUDY    56  51  81 S7        30.04R
STURGEON BAY   CLOUDY    46  37  71 S8        30.06S
GREEN BAY      CLOUDY    57  51  80 S7        30.05S
MANITOWOC      NOT AVBL
APPLETON       NOT AVBL
CLINTONVILLE   CLOUDY    57  52  82 CALM      30.05S
OSHKOSH        CLOUDY    58  54  86 SE3       30.04F FOG
$$

WIZ032>034-041-042-053>061-210000-
SOUTHWEST WISCONSIN

CITY           SKY/WX    TMP DP  RH WIND       PRES   REMARKS
LA CROSSE      CLOUDY    61  54  77 CALM      30.00F
SPARTA         CLOUDY    61  54  77 CALM      30.03F
VIROQUA        CLOUDY    61  58  88 CALM      30.01F
BOSCOBEL       LGT RAIN  61  57  87 CALM      29.99F FOG
PRAIRIE DU CHI LGT RAIN  59  56  90 NE6       29.98F
PLATTEVILLE    FAIR      75  46  36 NE6       30.02F
$$

WIZ056-057-062-063-064-067-068-210000-
SOUTH CENTRAL WISCONSIN

CITY           SKY/WX    TMP DP  RH WIND       PRES   REMARKS
BARABOO/DELLS  CLOUDY    59  55  87 CALM      30.02F
LONE ROCK      NOT AVBL
WATERTOWN      CLOUDY    71  46  42 N5        30.03F
MADISON        CLOUDY    68  50  52 CALM      30.02F
MIDDLETON      CLOUDY    69  48  47 CALM      30.02F
MONROE         PTSUNNY   77  44  31 S9        30.02F
JANESVILLE     SUNNY     81  37  21 SW12      30.02F
$$

WIZ051-052-058>065-066-070>072-210000-
SOUTHEAST WISCONSIN

CITY           SKY/WX    TMP DP  RH WIND       PRES   REMARKS
MILWAUKEE      PTSUNNY   70  40  33 S10       30.06S
WAUKESHA       MOSUNNY   73  41  31 SW9       30.04F
MILWAUKEE/TIMM MOSUNNY   75  37  25 SW8       30.04F
RACINE         PTSUNNY   62  37  39 S12       30.08F
BURLINGTON     PTSUNNY   76  41  28 SW14      30.04F
KENOSHA        MOSUNNY   69  40  34 SE13      30.06F
FOND DU LAC    CLOUDY    60  51  72 CALM      30.04F
SHEBOYGAN      CLOUDY    56  39  53 CALM      30.06F
WEST BEND      CLOUDY    68  41  37 NE8       30.04F
JUNEAU         DRIZZLE   66  44  45 CALM      30.04F
$$

LSZ147-162-210000-
LAKE SUPERIOR

STATION/POSITION TIME  TEMP    WIND        PRES    WAVE
                       AIR SEA DIR/SP/G            HT/PER
                 (UTC) (F)     (DEG/KT/KT) (MB)    (FT/S)
DEVILS ISLAND    2200   51        CALM     1016.5F
PORT WING        2200   52      40/  2/  3 1015.9
SAXON HARBOR     2200             CALM     1016.3F
$$

LMZ867-665-643>646-210000-
LAKE MICHIGAN

STATION/POSITION TIME  TEMP    WIND        PRES    WAVE
                       AIR SEA DIR/SP/G            HT/PER
                 (UTC) (F)     (DEG/KT/KT) (MB)    (FT/S)
NORTHPORT PIER   2200   41     150/  4/  7 1017.9F
SISTER BAY       2209   47     160/  8/ 10   N/A
KEWAUNEE LAKESHO 2200   39     170/  6/  8 1019.2F
SHEBOYGAN LAKESH 2200   45     170/  8/  8 1019.3F
PORT WASHINGTON  2200   50     110/  3/  5 1019.0
MILWAUKEE LAKESH 2200   48     140/ 13/ 15   N/A
KENOSHA   LAKESH 2200   54     180/ 15/ 19   N/A
$$

TC  - TEMPERATURE IN CELSIUS
VSB - VISIBILITY IN STATUTE MILES
WCI - WIND CHILL INDEX
HX  - HEAT INDEX




USA.gov is the U.S. government's official web portal to all federal, state and local government web resources and services.